Temp_Advection
nan nan nan nan nan nan nan nan nan nan nan nan nan nan nan nan nan nan nan nan nan nan
nan 0 0 0 0 0 0 0 0 0 0 -0 -0 1 0 0 -0 -1 -0 -0 0 nan
nan 0 0 0 0 -0 -0 0 0 0 -0 -0 0 0 -0 -0 -0 -1 -2 1 1 nan
nan 0 0 0 0 0 0 0 0 0 -0 -0 -0 -0 -0 0 -0 -1 0 0 -0 nan
nan 0 0 0 0 0 -0 -0 -0 -0 -0 -0 0 0 -0 0 -0 0 1 0 0 nan
nan 0 0 0 0 -0 0 0 0 -0 -0 -0 -0 -0 -0 -0 0 1 1 1 -0 nan
nan -0 -0 -0 -0 -0 -0 -0 -0 -0 -0 -0 0 -0 -0 0 0 0 1 0 0 nan
nan -0 -0 -0 -0 -0 -0 -0 -0 -0 -0 -0 -0 -0 0 0 0 0 0 1 0 nan
nan -0 -0 -0 -0 -0 -0 -0 -0 -0 -0 -0 0 0 0 -0 -0 -0 -0 -0 0 nan
nan -0 -0 -0 -1 -1 -1 -0 -0 -0 -1 -1 -0 0 0 1 0 -0 -0 -0 -0 nan
nan -1 -1 -1 -1 -1 -1 -1 -1 -1 -1 -1 -1 -0 -0 0 1 0 -1 -1 -0 nan
nan -1 -1 -1 -1 -1 -1 -1 -1 -1 -1 -1 -1 -1 1 1 -0 -1 -1 -1 -1 nan
nan -1 -1 -1 -1 -1 -1 -1 -2 -2 -1 -1 -1 -1 -0 1 1 -0 -1 -1 -1 nan
nan nan nan nan nan nan nan nan nan nan nan nan nan nan nan nan nan nan nan nan nan nan
Wind_Speed
27 27 21 30 34 30 24 25 26 24 25 26 26 26 23 24 25 27 27 31 29 31
14 18 17 23 20 26 24 27 26 28 29 29 29 31 31 30 32 34 32 32 31 38
17 21 14 16 13 12 15 15 19 20 23 28 33 37 36 43 48 46 44 44 41 42
15 9 10 11 8 11 18 19 21 24 27 29 28 28 34 35 33 36 41 43 43 38
8 10 7 4 3 4 7 10 10 12 14 15 19 19 18 19 23 25 30 31 32 32
12 9 7 4 2 1 4 6 8 10 12 13 15 18 20 23 25 29 29 31 31 29
13 12 10 9 7 5 5 6 8 10 12 14 16 18 19 21 24 26 27 27 27 28
13 11 9 8 8 8 9 10 12 12 13 15 17 19 20 22 23 25 25 25 27 28
12 12 12 12 12 13 14 15 16 17 19 19 19 20 21 23 25 26 27 27 26 26
15 15 16 18 19 19 20 21 21 22 23 24 24 25 26 27 27 29 29 28 28 28
17 19 20 21 21 21 22 23 24 24 24 25 26 28 29 30 31 30 30 30 30 30
19 20 21 21 22 24 26 27 28 27 27 27 26 25 27 28 30 30 30 33 33 33
20 20 21 23 23 25 26 27 29 29 28 27 29 28 28 27 28 29 30 32 34 36
23 24 26 28 29 30 30 30 31 31 31 31 29 27 27 29 26 27 30 27 29 30
Wind_Direction
216 211 218 212 203 206 198 208 210 211 210 217 220 212 224 237 240 242 242 250 262 262
171 164 190 180 190 209 211 222 222 235 235 243 241 235 247 250 255 257 259 260 262 262
104 121 154 186 184 204 211 207 218 227 237 245 248 251 252 255 259 260 262 265 262 262
104 118 143 171 190 201 226 240 247 241 242 244 254 250 255 260 260 256 257 260 267 265
90 97 116 130 204 234 246 249 261 259 257 255 255 259 262 259 261 258 258 261 264 269
90 92 96 104 126 228 259 264 266 266 266 265 265 264 263 262 260 258 259 261 264 263
76 67 58 47 33 10 339 313 298 290 282 277 273 273 271 270 270 270 267 265 263 263
45 35 22 5 352 340 326 318 310 303 296 291 287 281 276 273 271 270 268 263 261 261
17 7 356 344 337 330 323 318 309 304 299 293 287 283 281 279 276 273 273 271 266 261
351 344 339 332 325 318 313 309 306 302 299 295 293 290 285 280 277 276 275 273 269 263
339 335 331 328 325 320 316 314 311 308 306 302 295 291 288 285 280 275 275 274 272 270
328 325 321 318 317 317 315 314 312 312 310 307 302 300 295 289 287 285 277 272 271 269
332 329 327 324 322 319 316 314 312 309 308 306 304 300 293 291 283 283 284 278 274 273
331 328 324 323 322 320 319 315 312 311 309 309 307 301 292 286 286 284 286 288 287 279
Height
1433 1439 1444 1446 1450 1455 1456 1464 1467 1471 1474 1479 1482 1483 1488 1492 1493 1495 1495 1498 1497 1499
1434 1439 1442 1443 1450 1455 1459 1462 1466 1469 1472 1475 1478 1481 1483 1484 1487 1489 1489 1491 1490 1493
1436 1439 1445 1449 1452 1455 1459 1461 1465 1468 1470 1473 1474 1476 1478 1478 1478 1480 1480 1481 1484 1485
1440 1443 1446 1449 1451 1455 1458 1461 1462 1464 1466 1467 1468 1470 1471 1471 1471 1472 1474 1476 1476 1475
1445 1447 1449 1451 1453 1455 1458 1459 1459 1459 1460 1460 1462 1463 1464 1465 1465 1465 1467 1468 1468 1467
1448 1451 1453 1454 1455 1456 1457 1458 1458 1458 1458 1458 1457 1458 1459 1459 1459 1459 1458 1460 1460 1460
1452 1452 1453 1455 1455 1456 1457 1456 1455 1455 1454 1455 1456 1455 1454 1453 1453 1452 1452 1453 1453 1453
1454 1455 1456 1456 1456 1455 1454 1453 1453 1453 1452 1452 1451 1451 1448 1448 1447 1446 1445 1445 1445 1445
1457 1456 1457 1457 1455 1454 1452 1451 1451 1450 1449 1448 1449 1447 1444 1443 1441 1439 1438 1437 1437 1437
1456 1456 1454 1453 1451 1450 1449 1448 1447 1447 1445 1443 1442 1440 1438 1437 1434 1433 1433 1431 1431 1428
1455 1454 1451 1450 1449 1449 1447 1445 1443 1441 1439 1437 1437 1435 1432 1430 1426 1424 1424 1425 1425 1422
1454 1452 1451 1450 1447 1444 1442 1441 1439 1437 1434 1431 1431 1428 1425 1423 1419 1418 1416 1417 1416 1415
1454 1451 1448 1447 1443 1441 1439 1436 1435 1432 1428 1426 1422 1422 1420 1418 1415 1411 1410 1408 1408 1408
1449 1446 1444 1441 1438 1435 1431 1430 1430 1424 1421 1418 1416 1415 1413 1410 1407 1404 1400 1398 1396 1396